Ketchikan, AK

9:57 AM AKST on November 13, 2018 (GMT -0900)
Ketchikan International

Weather History for PAKT - September, 2017

Change the Weather History Date:

Sunday, September 24, 2017

  Actual Average Record
Temperature  
Mean Temperature 55 °F -  
Max Temperature 55 °F 58 °F 72 °F (1967)
Min Temperature 55 °F 46 °F 32 °F (1972)
Degree Days  
Heating Degree Days 10    
Growing Degree Days 5 (Base 50)    
Moisture  
Dew Point 55 °F    
Average Humidity 97    
Maximum Humidity 100    
Minimum Humidity 93    
Precipitation  
Precipitation 0.34 in - - ()
Sea Level Pressure  
Sea Level Pressure 29.88 in    
Wind  
Wind Speed 11 mph (SE)    
Max Wind Speed 17 mph    
Max Gust Speed 24 mph    
Visibility 4 miles    
Events Rain    
Averages and records for this station are not official NWS values.
T = Trace of Precipitation, MM = Missing Value Source: NWS Daily Summary

Daily Weather History Graph

Daily Weather History Graph

Search for Another Location

Airport or City:

Astronomy

Sep. 24, 2017 Rise Set
Actual Time 6:36 AM AKDT 6:39 PM AKDT
Civil Twilight 6:00 AM AKDT 7:15 PM AKDT
Nautical Twilight 5:17 AM AKDT 7:58 PM AKDT
Astronomical Twilight 4:31 AM AKDT 8:44 PM AKDT
Moon 11:37 AM AKDT (9/24) 8:54 PM AKDT (9/24)
Length of Visible Light 13h 15m
Length of Day
12h 02m
Waxing Crescent, 21% of the Moon is Illuminated
Sep 24
Waxing Crescent
Sep 27
First Quarter
Oct 5
Full
Oct 12
Last Quarter
Oct 19
New

Hourly Weather History & Observations

Time (AKDT) Temp. Dew Point Humidity Pressure Visibility Wind Dir Wind Speed Gust Speed Precip Events Conditions
12:53 AM 55.9 °F 54.0 °F 93% 29.88 in 8.0 mi SE 12.7 mph - 0.09 in Rain Light Rain
1:53 AM 55.9 °F 54.0 °F 93% 29.88 in 10.0 mi SE 13.8 mph - 0.02 in Rain Light Rain
2:28 AM 55.9 °F 54.0 °F 93% 29.88 in 6.0 mi ESE 17.3 mph - 0.01 in Rain Light Rain
2:46 AM 55.0 °F 54.0 °F 96% 29.88 in 4.0 mi ESE 15.0 mph - 0.02 in Rain Light Rain
2:53 AM 55.9 °F 54.0 °F 93% 29.89 in 4.0 mi ESE 13.8 mph - 0.02 in Rain Light Rain
3:53 AM 55.0 °F 54.0 °F 96% 29.88 in 4.0 mi ESE 13.8 mph - 0.05 in Rain Light Rain
4:53 AM 55.0 °F 54.0 °F 96% 29.88 in 3.0 mi ESE 15.0 mph - 0.02 in   Overcast
5:18 AM 55.0 °F 55.0 °F 100% 29.87 in 4.0 mi ESE 15.0 mph - 0.00 in Rain Light Rain
5:53 AM 55.0 °F 54.0 °F 96% 29.88 in 2.5 mi ESE 12.7 mph - 0.04 in Rain Light Rain
6:01 AM 55.0 °F 54.0 °F 96% 29.88 in 3.0 mi SE 12.7 mph - 0.01 in Rain Rain
6:05 AM 55.4 °F 55.4 °F 100% 29.88 in 4.0 mi SE 11.5 mph - N/A Rain Light Rain
6:53 AM 55.4 °F 55.4 °F 100% 29.88 in 4.0 mi SE 9.2 mph - N/A Rain Light Rain
7:53 AM 55.4 °F 53.6 °F 94% 29.88 in 3.0 mi SE 9.2 mph - N/A Rain Rain
8:53 AM 55.4 °F 55.4 °F 100% 29.88 in 3.0 mi SE 15.0 mph - N/A Rain Light Rain
9:53 AM 55.4 °F 53.6 °F 94% 29.88 in 3.0 mi SE 12.7 mph - N/A Rain Rain
10:53 AM 55.4 °F 53.6 °F 94% 29.88 in 2.0 mi SE 13.8 mph 24.2 mph N/A Rain Light Rain
11:53 AM 55.4 °F 55.4 °F 100% 29.88 in 2.0 mi SE 13.8 mph - N/A Rain Light Rain
12:53 PM 55.4 °F 53.6 °F 94% 29.89 in 3.0 mi SE 11.5 mph - N/A Rain Light Rain
1:53 PM 55.4 °F 55.4 °F 100% 29.89 in 3.0 mi SE 15.0 mph - N/A Rain Light Rain
2:53 PM 55.4 °F 55.4 °F 100% 29.90 in 9.0 mi SE 17.3 mph - N/A   Overcast
3:53 PM 55.4 °F 55.4 °F 100% 29.90 in 3.0 mi SE 9.2 mph - N/A Rain Light Rain
4:53 PM 55.4 °F 55.4 °F 100% 29.89 in 2.0 mi SE 15.0 mph - N/A Rain Light Rain
5:53 PM 55.4 °F 55.4 °F 100% 29.89 in 10.0 mi SE 10.4 mph - N/A Rain Light Rain
6:53 PM 55.4 °F 55.4 °F 100% 29.88 in 10.0 mi SE 9.2 mph - N/A   Overcast
7:53 PM 55.9 °F 55.0 °F 97% 29.87 in 10.0 mi SE 5.8 mph - N/A   Overcast
8:53 PM 55.4 °F 55.4 °F 100% 29.87 in 3.0 mi Calm Calm - N/A Rain Light Rain
9:11 PM 55.9 °F 55.0 °F 97% 29.87 in 2.5 mi SSE 3.5 mph - 0.01 in Rain Light Rain
9:31 PM 55.9 °F 55.0 °F 97% 29.87 in 5.0 mi Calm Calm - 0.03 in Rain Light Rain
9:53 PM 55.9 °F 55.0 °F 97% 29.87 in 4.0 mi SSE 3.5 mph - 0.03 in Rain Light Rain
10:05 PM 55.9 °F 55.0 °F 97% 29.86 in 2.5 mi SSE 3.5 mph - 0.01 in Rain Light Rain
10:13 PM 55.9 °F 55.0 °F 97% 29.86 in 3.0 mi SSE 4.6 mph - 0.02 in Rain Light Rain
10:51 PM 55.4 °F 55.4 °F 100% 29.86 in 3.0 mi Calm Calm - 0.04 in Rain Light Rain
10:53 PM 55.9 °F 55.0 °F 97% 29.86 in 3.0 mi Calm Calm - 0.04 in Rain Light Rain
11:03 PM 55.9 °F 55.0 °F 97% 29.86 in 1.8 mi Calm Calm - 0.01 in Rain Light Rain
11:20 PM 55.9 °F 55.0 °F 97% 29.86 in 3.0 mi Calm Calm - 0.02 in Rain Light Rain
11:30 PM 55.9 °F 55.0 °F 97% 29.86 in 2.5 mi Calm Calm - 0.02 in Rain Light Rain
11:53 PM 55.9 °F 55.0 °F 97% 29.87 in 3.0 mi Calm Calm - 0.03 in Rain Light Rain